[[{"header":{"parameterUnit":"m.s-1","parameterCategory":2,"la1":30.2991,"la2":30.254,"lo1":-89.0895,"lo2":-89.0444,"dx":0.0017,"dy":0.0017,"nx":28,"ny":28,"refTime":"2023-01-23T03:00:00:Z","depth":"0","parameterNumber":2,"parameterNumberName":"U-component_of_CURRENTS"},"data":[0,0,0,0,0,0,0,0,0,0,0,0,0,0,0,0,0,0,0,0,0,0,0,0,0,0,0,0,0,0,0,0,0,0,0,0,0,0,0,0,0,0,0,0,0,0,0,0,0,0,0,0,0,0,0,0,0,0,-0.1947,-0.1947,0,-0.1917,-0.1916,-0.1916,-0.1919,-0.192,-0.192,-0.1921,-0.1852,-0.1849,-0.1847,0,0,0,0,0,0,0,0,0,0,0,0,0,-0.1917,-0.1918,-0.1947,-0.1947,-0.1947,-0.1917,-0.1916,-0.1915,-0.1919,-0.192,-0.192,-0.1921,-0.1853,-0.185,-0.1847,0,0,0,0,0,0,0,0,0,0,0,0,0,-0.191,-0.1918,-0.1947,-0.1947,-0.1947,-0.1917,-0.1916,-0.1915,-0.1918,-0.192,-0.1921,-0.1922,-0.1854,-0.185,-0.1846,-0.1801,0,0,-0.1835,-0.1833,0,0,0,0,0,0,0,0,-0.1911,-0.1911,-0.1947,-0.1947,-0.1947,-0.1925,-0.188,-0.1876,-0.1918,-0.1926,-0.1921,-0.1922,-0.1874,-0.1868,-0.1857,-0.1797,-0.1794,-0.1834,-0.1832,-0.183,-0.1829,0,0,0,0,0,0,0,-0.1911,-0.1912,-0.1932,-0.1947,-0.1946,-0.1917,-0.1918,-0.1879,-0.1891,-0.1926,-0.1926,-0.1927,-0.1873,-0.186,-0.1855,-0.1793,-0.1834,-0.1831,-0.1829,-0.1827,-0.1708,-0.1708,0,0,0,0,0,0,-0.1924,-0.1913,-0.1933,-0.1931,-0.1934,-0.1918,-0.1918,-0.1929,-0.1892,-0.1889,-0.1926,-0.1928,-0.1866,-0.1859,-0.1853,-0.184,-0.183,-0.1827,-0.1825,-0.1709,-0.1708,-0.1707,0,0,0,0,0,0,-0.1924,-0.1927,-0.1934,-0.1923,-0.1922,-0.1918,-0.1929,-0.1927,-0.1925,-0.1894,-0.189,-0.1927,-0.1867,-0.1858,-0.1827,-0.1836,-0.1825,-0.1822,-0.171,-0.1709,-0.1708,-0.1786,0,0,0,0,0,0,-0.1923,-0.1927,-0.1934,-0.1924,-0.1924,-0.1934,-0.1928,-0.1926,-0.1925,-0.1926,-0.1893,-0.1887,-0.1867,-0.1832,-0.1823,-0.183,-0.1819,-0.1711,-0.171,-0.1708,-0.1785,-0.1788,-0.1791,0,0,0,0,0,-0.1922,-0.1939,-0.1934,-0.1937,-0.1935,-0.1935,-0.1932,-0.1929,-0.1924,-0.1929,-0.19,-0.1889,-0.1815,-0.1829,-0.1818,-0.1824,-0.1712,-0.171,-0.1708,-0.1784,-0.1787,-0.179,0,0,0,0,0,0,-0.1928,-0.194,-0.1936,-0.1954,-0.195,-0.1937,-0.194,-0.1931,-0.1911,-0.1912,-0.1877,-0.1869,-0.1843,-0.1812,-0.1828,-0.178,-0.1761,-0.1756,-0.1822,-0.1825,-0.1828,-0.1859,-0.1815,0,0,0,0,0,-0.1931,-0.1947,-0.1947,-0.1958,-0.1961,-0.1946,-0.1943,-0.1943,-0.1926,-0.192,-0.1893,-0.1856,-0.1822,-0.1809,-0.1772,-0.1746,-0.1749,-0.1739,-0.1742,-0.1745,-0.176,-0.1757,-0.1762,-0.1701,-0.1701,-0.1701,0,0,-0.1932,-0.1943,-0.1949,-0.196,-0.1955,-0.1968,-0.1948,-0.1954,-0.196,-0.1912,-0.1904,-0.1863,-0.1814,-0.1791,-0.1776,-0.1772,-0.1768,-0.1742,-0.1746,-0.1759,-0.1755,-0.1762,-0.1768,-0.1699,-0.17,-0.17,0,0,-0.195,-0.1956,-0.1977,-0.1983,-0.1989,-0.1984,-0.1989,-0.198,-0.1974,-0.1955,-0.1921,-0.1889,-0.1834,-0.1811,-0.1788,-0.1777,-0.1779,-0.1758,-0.1807,-0.1804,-0.181,-0.1816,-0.1859,-0.1868,-0.1765,-0.1766,-0.1766,0,-0.1948,-0.1982,-0.1979,-0.2005,-0.2015,-0.1996,-0.2021,-0.2008,-0.1988,-0.1982,-0.1965,-0.1891,-0.1847,-0.1826,-0.1823,-0.1788,-0.1802,-0.1807,-0.1813,-0.1818,-0.1822,-0.1865,-0.1874,-0.1769,-0.1769,-0.1768,-0.1768,0,-0.1982,-0.2012,-0.2026,-0.2055,-0.2063,-0.2081,-0.2075,-0.2074,-0.2056,-0.2039,-0.2012,-0.1952,-0.1914,-0.1888,-0.1853,-0.1855,-0.1863,-0.1818,-0.1819,-0.1835,-0.1877,-0.1885,-0.1774,-0.1773,-0.1772,-0.1771,0,0,-0.1969,-0.2038,-0.2043,-0.2072,-0.2096,-0.2105,-0.2122,-0.2127,-0.214,-0.2102,-0.2109,-0.2037,-0.2007,-0.1977,-0.1928,-0.1922,-0.1964,-0.1892,-0.189,-0.1962,-0.2003,-0.2081,-0.2097,-0.1928,-0.1928,-0.1929,-0.2034,0,-0.1994,-0.2062,-0.2086,-0.2139,-0.2171,-0.2176,-0.2195,-0.2196,-0.2182,-0.2182,-0.2124,-0.21,-0.204,-0.2023,-0.2009,-0.1962,-0.1983,-0.1943,-0.1953,-0.1955,-0.2044,-0.2107,-0.2161,-0.2265,-0.2042,-0.2043,-0.2044,0,-0.2012,-0.2063,-0.2127,-0.2197,-0.221,-0.2231,-0.2265,-0.2278,-0.2273,-0.2265,-0.2242,-0.2199,-0.2174,-0.2115,-0.2093,-0.2074,-0.2055,-0.2029,-0.2031,-0.2083,-0.2047,-0.2202,-0.2287,-0.2302,-0.2055,-0.2054,-0.2054,0,-0.2001,-0.2085,-0.2139,-0.2162,-0.2234,-0.2254,-0.2277,-0.2293,-0.2314,-0.2311,-0.2332,-0.2291,-0.2277,-0.2236,-0.2184,-0.2142,-0.2182,-0.2108,-0.2177,-0.2183,-0.2221,-0.223,-0.2343,-0.212,-0.212,-0.2119,-0.2119,0,-0.2015,-0.2058,-0.2137,-0.2168,-0.2223,-0.2262,-0.2308,-0.2325,-0.2362,-0.2401,-0.2365,-0.2395,-0.2305,-0.2309,-0.2246,-0.2266,-0.2237,-0.2223,-0.2221,-0.2252,-0.2262,-0.2266,-0.2245,-0.2123,-0.2123,-0.2122,-0.2121,0,-0.1991,-0.2048,-0.2112,-0.2196,-0.2219,-0.2247,-0.2325,-0.2363,-0.2402,-0.2458,-0.2464,-0.2483,-0.2499,-0.2448,-0.2404,-0.2371,-0.2369,-0.2369,-0.2444,-0.2449,-0.2515,-0.2495,-0.2546,-0.2516,-0.2468,-0.2471,-0.2473,0,-0.1986,-0.2022,-0.2112,-0.2144,-0.2179,-0.2236,-0.2283,-0.2355,-0.2403,-0.2516,-0.2544,-0.26,-0.2642,-0.2652,-0.2609,-0.2589,-0.2495,-0.2621,-0.2535,-0.2575,-0.2549,-0.2461,-0.2423,-0.2625,-0.2628,-0.2631,-0.2633,0,-0.1964,-0.1992,-0.2036,-0.2109,-0.2162,-0.2239,-0.2309,-0.2369,-0.2471,-0.2549,-0.2671,-0.2729,-0.2797,-0.2836,-0.2829,-0.2773,-0.263,-0.2678,-0.268,-0.2676,-0.2624,-0.2576,-0.2525,-0.2657,-0.2654,-0.2653,-0.2651,-0.265,-0.1914,-0.1935,-0.1985,-0.2047,-0.212,-0.2209,-0.2224,-0.2352,-0.2452,-0.2554,-0.271,-0.2805,-0.2965,-0.2975,-0.2955,-0.2959,-0.2819,-0.2892,-0.2869,-0.2779,-0.2745,-0.2787,-0.2929,-0.2928,-0.2927,-0.2927,-0.2926,0,-0.1838,-0.1868,-0.1923,-0.1979,-0.2021,-0.2097,-0.2206,-0.2202,-0.2293,-0.25,-0.2624,-0.2915,-0.3051,-0.3126,-0.3229,-0.3174,-0.3033,-0.3092,-0.2968,-0.2916,-0.2947,-0.2949,-0.3149,-0.3149,-0.3149,-0.3149,-0.3149,-0.3149,-0.1786,-0.1794,-0.1832,-0.185,-0.1892,-0.1891,-0.1927,-0.1966,-0.2064,-0.2239,-0.2455,-0.2654,-0.285,-0.3341,-0.3402,-0.3299,-0.3161,-0.3129,-0.3038,-0.3072,-0.3049,-0.3028,-0.3027,-0.3239,-0.3239,-0.2975,-0.2974,-0.2973]},{"header":{"parameterUnit":"m.s-1","parameterCategory":2,"la1":30.2991,"la2":30.254,"lo1":-89.0895,"lo2":-89.0444,"dx":0.0017,"dy":0.0017,"nx":28,"ny":28,"refTime":"2023-01-23T03:00:00:Z","depth":"0","parameterNumber":3,"parameterNumberName":"V-component_of_CURRENTS"},"data":[0,0,0,0,0,0,0,0,0,0,0,0,0,0,0,0,0,0,0,0,0,0,0,0,0,0,0,0,0,0,0,0,0,0,0,0,0,0,0,0,0,0,0,0,0,0,0,0,0,0,0,0,0,0,0,0,0,0,-0.0045,-0.0044,0,0.0029,0.003,0.0031,0.0058,0.0058,0.0058,0.0057,0.0104,0.0106,0.0108,0,0,0,0,0,0,0,0,0,0,0,0,0,-0.0114,-0.0113,-0.0045,-0.0044,-0.0043,0.0029,0.003,0.0031,0.0058,0.0058,0.0058,0.0057,0.0104,0.0106,0.0108,0,0,0,0,0,0,0,0,0,0,0,0,0,-0.0066,-0.0113,-0.0045,-0.0022,-0.0019,0.0029,0.003,0.0032,0.0058,0.0058,0.0057,0.0057,0.0103,0.0106,0.0108,0.0133,0,0,0.0115,0.0116,0,0,0,0,0,0,0,0,-0.0068,-0.0063,-0.0026,-0.0023,-0.002,0.0033,0.0023,0.0064,0.0059,0.003,0.0057,0.0057,0.0078,0.0082,0.0099,0.0135,0.0137,0.0115,0.0117,0.0118,0.0118,0,0,0,0,0,0,0,-0.0072,-0.0066,-0.0015,-0.0025,-0.0021,0.0002,0.0008,0.0031,0.0056,0.0033,0.0034,0.0041,0.0079,0.0097,0.01,0.0137,0.0115,0.0117,0.0119,0.012,0.0203,0.0204,0,0,0,0,0,0,-0.0085,-0.0069,-0.0017,-0.0012,-0.0047,0.0003,0.001,0.0017,0.0057,0.0062,0.0042,0.0042,0.0093,0.0098,0.0102,0.014,0.0118,0.012,0.0121,0.0202,0.0203,0.0204,0,0,0,0,0,0,-0.0086,-0.0081,-0.002,-0.004,-0.0031,0.0004,0.0013,0.0019,0.0035,0.0064,0.0069,0.005,0.0093,0.0099,0.0129,0.0142,0.0121,0.0123,0.0201,0.0202,0.0204,0.0212,0,0,0,0,0,0,-0.0089,-0.0082,-0.0082,-0.0041,-0.003,0.0005,0.0014,0.0021,0.0039,0.0041,0.0073,0.0077,0.0093,0.0125,0.0131,0.0145,0.0125,0.02,0.0202,0.0203,0.0211,0.0213,0.0215,0,0,0,0,0,-0.0091,-0.0093,-0.0083,-0.0077,-0.0031,0.0005,0.0013,0.0037,0.004,0.0049,0.0074,0.0076,0.0139,0.0128,0.0135,0.0149,0.0199,0.0201,0.0203,0.021,0.0213,0.0215,0,0,0,0,0,0,-0.0126,-0.0089,-0.0077,-0.0068,-0.0035,0.0009,0.0017,0.0036,0.0065,0.0064,0.0089,0.0096,0.0126,0.0137,0.0125,0.0178,0.0168,0.0171,0.0171,0.0174,0.0176,0.017,0.0127,0,0,0,0,0,-0.0133,-0.0124,-0.0082,-0.0075,-0.006,-0.0021,-0.0005,0.0015,0.0047,0.0059,0.0084,0.011,0.014,0.0155,0.018,0.0211,0.0228,0.0224,0.0226,0.0228,0.0228,0.0268,0.0274,0.021,0.021,0.021,0,0,-0.0146,-0.0124,-0.0121,-0.0082,-0.0056,-0.0031,-0.0012,0.0013,0.0036,0.0059,0.0092,0.0118,0.015,0.0185,0.02,0.0196,0.0257,0.023,0.0232,0.0231,0.027,0.0277,0.0282,0.0211,0.0211,0.0211,0,0,-0.0168,-0.0146,-0.0145,-0.0116,-0.0077,-0.0044,-0.0039,0.0009,0.0031,0.0069,0.0093,0.013,0.0169,0.0204,0.0224,0.0255,0.0266,0.0258,0.027,0.0308,0.0314,0.0319,0.0354,0.0362,0.0262,0.0262,0.0262,0,-0.0188,-0.0176,-0.0139,-0.0124,-0.0104,-0.0052,-0.004,-0.0001,0.0051,0.0074,0.0075,0.0155,0.018,0.0238,0.025,0.0261,0.0281,0.0255,0.0311,0.0317,0.0322,0.0356,0.0365,0.0263,0.0263,0.0263,0.0263,0,-0.0203,-0.019,-0.0186,-0.0148,-0.0117,-0.0098,-0.0039,-0.0004,0.0028,0.0068,0.0125,0.0171,0.0217,0.0236,0.0253,0.0307,0.0309,0.0307,0.0302,0.0328,0.0363,0.0372,0.0264,0.0263,0.0263,0.0263,0,0,-0.0258,-0.0209,-0.0208,-0.0197,-0.013,-0.0109,-0.0056,0.0004,0.0036,0.0092,0.0135,0.0202,0.0229,0.0254,0.0288,0.0329,0.0386,0.0332,0.0334,0.0363,0.0471,0.0545,0.0562,0.0392,0.0393,0.0394,0.0483,0,-0.0284,-0.0283,-0.0233,-0.0214,-0.0208,-0.013,-0.0088,-0.0023,0.0038,0.0095,0.0163,0.0211,0.0236,0.0259,0.0308,0.0367,0.0409,0.0362,0.0444,0.0446,0.0506,0.0575,0.0674,0.0767,0.0491,0.0493,0.0494,0,-0.0315,-0.0312,-0.0312,-0.0258,-0.0245,-0.0215,-0.0136,-0.0089,0.0016,0.0063,0.0138,0.0195,0.0281,0.0284,0.0406,0.0374,0.042,0.0464,0.0468,0.054,0.0538,0.0696,0.0794,0.0989,0.0508,0.0507,0.0506,0,-0.0396,-0.0359,-0.0368,-0.0351,-0.0282,-0.0256,-0.0212,-0.0111,-0.007,0.0041,0.0084,0.0195,0.0249,0.033,0.0439,0.0419,0.0568,0.0547,0.0659,0.0663,0.0766,0.0779,0.1061,0.0622,0.0622,0.0621,0.0621,0,-0.045,-0.0453,-0.0411,-0.0418,-0.0416,-0.0334,-0.0303,-0.0232,-0.0133,-0.008,0.0049,0.0124,0.0262,0.0373,0.0449,0.0604,0.0579,0.0683,0.0704,0.0773,0.0785,0.0972,0.1025,0.0625,0.0624,0.0623,0.0623,0,-0.0537,-0.051,-0.052,-0.0472,-0.046,-0.0462,-0.0386,-0.0359,-0.0242,-0.0165,-0.0131,0.0071,0.0244,0.039,0.0545,0.0628,0.0866,0.0801,0.088,0.0909,0.1195,0.1242,0.1471,0.1505,0.0946,0.0949,0.0951,0,-0.058,-0.0602,-0.0589,-0.061,-0.0592,-0.0578,-0.0568,-0.0448,-0.0399,-0.0191,-0.0157,0.0056,0.0241,0.0531,0.073,0.092,0.0986,0.1087,0.1072,0.1262,0.1328,0.1328,0.1336,0.1208,0.1212,0.1216,0.1218,0,-0.0668,-0.0665,-0.0678,-0.0737,-0.0743,-0.0733,-0.0692,-0.0661,-0.0496,-0.0377,-0.0165,0.0014,0.0376,0.0732,0.1006,0.108,0.1242,0.1161,0.135,0.1568,0.1594,0.1619,0.1087,0.1248,0.1245,0.1243,0.1241,0.124,-0.073,-0.0772,-0.0805,-0.0857,-0.0877,-0.0873,-0.0852,-0.0764,-0.0654,-0.0409,-0.02,0.0154,0.0735,0.1184,0.1289,0.1628,0.1482,0.1716,0.1758,0.1739,0.1794,0.1331,0.1518,0.1516,0.1515,0.1514,0.1513,0,-0.0803,-0.0857,-0.0925,-0.0971,-0.1019,-0.0986,-0.0924,-0.0849,-0.0713,-0.0397,-0.0129,0.0623,0.1172,0.1613,0.2153,0.2279,0.2194,0.2302,0.2349,0.232,0.194,0.1978,0.2285,0.2285,0.2285,0.2284,0.2284,0.2284,-0.0844,-0.0937,-0.0981,-0.1093,-0.1119,-0.1113,-0.1068,-0.0906,-0.0662,-0.013,0.035,0.0729,0.1466,0.2503,0.296,0.2891,0.2934,0.2897,0.2877,0.268,0.2629,0.2579,0.2634,0.3073,0.3074,0.3243,0.3245,0.3247]}],[{"header":{"parameterUnit":"m.s-1","parameterCategory":2,"la1":30.2991,"la2":30.254,"lo1":-89.0895,"lo2":-89.0444,"dx":0.0017,"dy":0.0017,"nx":28,"ny":28,"refTime":"2023-01-23T03:00:00:Z","depth":"2","parameterNumber":2,"parameterNumberName":"U-component_of_CURRENTS"},"data":[0,0,0,0,0,0,0,0,0,0,0,0,0,0,0,0,0,0,0,0,0,0,0,0,0,0,0,0,0,0,0,0,0,0,0,0,0,0,0,0,0,0,0,0,0,0,0,0,0,0,0,0,0,0,0,0,0,0,-0.1895,-0.1895,0,-0.1865,-0.1865,-0.1864,-0.1868,-0.1869,-0.187,-0.187,-0.1802,-0.18,-0.1797,0,0,0,0,0,0,0,0,0,0,0,0,0,-0.1866,-0.1867,-0.1895,-0.1895,-0.1895,-0.1865,-0.1865,-0.1864,-0.1868,-0.1869,-0.187,-0.1871,-0.1803,-0.18,-0.1797,0,0,0,0,0,0,0,0,0,0,0,0,0,-0.1859,-0.1867,-0.1895,-0.1895,-0.1895,-0.1865,-0.1865,-0.1864,-0.1868,-0.1869,-0.187,-0.1871,-0.1804,-0.18,-0.1797,-0.1751,0,0,-0.1785,-0.1783,0,0,0,0,0,0,0,0,-0.186,-0.186,-0.1895,-0.1895,-0.1895,-0.1874,-0.1829,-0.1825,-0.1868,-0.1875,-0.187,-0.1872,-0.1824,-0.1818,-0.1807,-0.1747,-0.1744,-0.1785,-0.1782,-0.1781,-0.178,0,0,0,0,0,0,0,-0.186,-0.1861,-0.188,-0.1895,-0.1895,-0.1866,-0.1867,-0.1828,-0.184,-0.1875,-0.1876,-0.1876,-0.1823,-0.181,-0.1805,-0.1743,-0.1785,-0.1782,-0.1779,-0.1778,-0.1659,-0.1658,0,0,0,0,0,0,-0.1873,-0.1862,-0.1881,-0.188,-0.1883,-0.1867,-0.1867,-0.1877,-0.1842,-0.1839,-0.1876,-0.1877,-0.1816,-0.181,-0.1803,-0.179,-0.1781,-0.1777,-0.1775,-0.166,-0.1659,-0.1658,0,0,0,0,0,0,-0.1873,-0.1876,-0.1883,-0.1871,-0.1871,-0.1867,-0.1877,-0.1876,-0.1875,-0.1843,-0.1839,-0.1877,-0.1817,-0.1808,-0.1777,-0.1786,-0.1776,-0.1772,-0.1661,-0.166,-0.1659,-0.1737,0,0,0,0,0,0,-0.1872,-0.1876,-0.1882,-0.1873,-0.1872,-0.1882,-0.1877,-0.1875,-0.1874,-0.1876,-0.1843,-0.1837,-0.1817,-0.1783,-0.1773,-0.1781,-0.1769,-0.1662,-0.166,-0.1659,-0.1736,-0.1739,-0.1741,0,0,0,0,0,-0.1871,-0.1887,-0.1883,-0.1885,-0.1884,-0.1883,-0.188,-0.1878,-0.1873,-0.1878,-0.185,-0.1839,-0.1765,-0.1779,-0.1768,-0.1775,-0.1663,-0.1661,-0.1659,-0.1734,-0.1738,-0.1741,0,0,0,0,0,0,-0.1877,-0.1889,-0.1885,-0.1903,-0.1898,-0.1886,-0.1889,-0.188,-0.186,-0.1862,-0.1827,-0.1819,-0.1794,-0.1763,-0.1778,-0.1731,-0.1711,-0.1707,-0.1772,-0.1775,-0.1778,-0.181,-0.1766,0,0,0,0,0,-0.188,-0.1896,-0.1896,-0.1907,-0.1909,-0.1895,-0.1892,-0.1893,-0.1876,-0.1869,-0.1843,-0.1807,-0.1772,-0.176,-0.1723,-0.1697,-0.1699,-0.169,-0.1693,-0.1696,-0.171,-0.1707,-0.1713,-0.1652,-0.1652,-0.1652,0,0,-0.1881,-0.1892,-0.1898,-0.1908,-0.1903,-0.1916,-0.1897,-0.1903,-0.1909,-0.1862,-0.1854,-0.1814,-0.1764,-0.1741,-0.1727,-0.1722,-0.1718,-0.1693,-0.1697,-0.171,-0.1706,-0.1712,-0.1718,-0.165,-0.165,-0.1651,0,0,-0.1899,-0.1905,-0.1926,-0.1931,-0.1938,-0.1932,-0.1938,-0.1929,-0.1923,-0.1904,-0.1871,-0.1839,-0.1785,-0.1761,-0.1738,-0.1727,-0.1729,-0.1708,-0.1758,-0.1754,-0.1761,-0.1766,-0.1809,-0.1818,-0.1716,-0.1716,-0.1716,0,-0.1897,-0.1931,-0.1928,-0.1953,-0.1964,-0.1945,-0.1969,-0.1957,-0.1937,-0.1931,-0.1914,-0.1841,-0.1798,-0.1776,-0.1773,-0.1738,-0.1753,-0.1758,-0.1763,-0.1768,-0.1773,-0.1815,-0.1823,-0.172,-0.1719,-0.1719,-0.1719,0,-0.1931,-0.1961,-0.1974,-0.2003,-0.2011,-0.2028,-0.2022,-0.2022,-0.2005,-0.1988,-0.1961,-0.1901,-0.1864,-0.1838,-0.1803,-0.1805,-0.1813,-0.1769,-0.1769,-0.1785,-0.1827,-0.1835,-0.1725,-0.1724,-0.1723,-0.1722,0,0,-0.1918,-0.1986,-0.1991,-0.2019,-0.2043,-0.2053,-0.2069,-0.2074,-0.2088,-0.205,-0.2057,-0.1986,-0.1956,-0.1926,-0.1878,-0.1872,-0.1914,-0.1842,-0.184,-0.1912,-0.1953,-0.2029,-0.2044,-0.1877,-0.1878,-0.1879,-0.1983,0,-0.1943,-0.201,-0.2034,-0.2086,-0.2118,-0.2122,-0.2141,-0.2142,-0.2129,-0.2129,-0.2072,-0.2048,-0.1988,-0.1973,-0.1958,-0.1911,-0.1932,-0.1892,-0.1903,-0.1904,-0.1991,-0.2054,-0.1811,-0.189,-0.1991,-0.1992,-0.1993,0,-0.1961,-0.2011,-0.2074,-0.2143,-0.2156,-0.2177,-0.2211,-0.2223,-0.2219,-0.2211,-0.2189,-0.2147,-0.2122,-0.2064,-0.2041,-0.2023,-0.2004,-0.1978,-0.198,-0.203,-0.1994,-0.1879,-0.1899,-0.2005,-0.2004,-0.2003,-0.2003,0,-0.195,-0.2033,-0.2087,-0.2109,-0.218,-0.2201,-0.2223,-0.2239,-0.226,-0.2258,-0.2278,-0.2237,-0.2224,-0.2184,-0.2132,-0.209,-0.213,-0.2057,-0.2123,-0.213,-0.1915,-0.1902,-0.2068,-0.2068,-0.2068,-0.2067,-0.2067,0,-0.1964,-0.2006,-0.2085,-0.2115,-0.217,-0.2209,-0.2254,-0.2271,-0.2308,-0.2347,-0.2312,-0.2341,-0.2252,-0.2256,-0.2194,-0.2213,-0.2184,-0.2169,-0.2167,-0.194,-0.1928,-0.2002,-0.1993,-0.2071,-0.207,-0.207,-0.2069,0,-0.194,-0.1997,-0.206,-0.2143,-0.2166,-0.2194,-0.2272,-0.231,-0.2349,-0.2403,-0.241,-0.2428,-0.2444,-0.2393,-0.2349,-0.2316,-0.23,-0.2313,-0.2092,-0.2064,-0.229,-0.2283,-0.2404,-0.2408,-0.2411,-0.2413,-0.2415,0,-0.1936,-0.1971,-0.2061,-0.2093,-0.2128,-0.2185,-0.2231,-0.2302,-0.2349,-0.2461,-0.2489,-0.2544,-0.2571,-0.258,-0.246,-0.2417,-0.2426,-0.2254,-0.2128,-0.2342,-0.2327,-0.2315,-0.2304,-0.1869,-0.1867,-0.1865,-0.1863,0,-0.1914,-0.1942,-0.1985,-0.2059,-0.2111,-0.2186,-0.2256,-0.2315,-0.2416,-0.2478,-0.2597,-0.2641,-0.2638,-0.2487,-0.2448,-0.2366,-0.2237,-0.2223,-0.2466,-0.1856,-0.1855,-0.1835,-0.1838,-0.1845,-0.1847,-0.1848,-0.1849,-0.185,-0.1865,-0.1885,-0.1935,-0.1997,-0.2069,-0.2157,-0.2171,-0.2224,-0.2299,-0.2281,-0.2526,-0.245,-0.2469,-0.2237,-0.2191,-0.2091,-0.2218,-0.2101,-0.2098,-0.2099,-0.2052,-0.2061,-0.2082,-0.2085,-0.2088,-0.209,-0.2092,0,-0.1762,-0.1819,-0.1874,-0.193,-0.1932,-0.2046,-0.2154,-0.204,-0.2015,-0.2054,-0.208,-0.1922,-0.1919,-0.1915,-0.1739,-0.1802,-0.1653,-0.1753,-0.1526,-0.1547,-0.1565,-0.1481,-0.1365,-0.1363,-0.1361,-0.136,0,0,-0.1703,-0.1697,-0.1734,-0.1727,-0.1796,-0.1705,-0.1738,-0.1591,-0.151,-0.1354,-0.1317,-0.1541,-0.1751,-0.1477,-0.1506,-0.1399,-0.141,-0.1317,-0.1889,-0.1628,-0.1641,-0.176,-0.1659,0,0,0,0,0]},{"header":{"parameterUnit":"m.s-1","parameterCategory":2,"la1":30.2991,"la2":30.254,"lo1":-89.0895,"lo2":-89.0444,"dx":0.0017,"dy":0.0017,"nx":28,"ny":28,"refTime":"2023-01-23T03:00:00:Z","depth":"2","parameterNumber":3,"parameterNumberName":"V-component_of_CURRENTS"},"data":[0,0,0,0,0,0,0,0,0,0,0,0,0,0,0,0,0,0,0,0,0,0,0,0,0,0,0,0,0,0,0,0,0,0,0,0,0,0,0,0,0,0,0,0,0,0,0,0,0,0,0,0,0,0,0,0,0,0,-0.0068,-0.0067,0,0.0006,0.0007,0.0007,0.0035,0.0034,0.0034,0.0034,0.0081,0.0083,0.0084,0,0,0,0,0,0,0,0,0,0,0,0,0,-0.0136,-0.0135,-0.0068,-0.0067,-0.0066,0.0006,0.0007,0.0008,0.0035,0.0034,0.0034,0.0034,0.008,0.0082,0.0084,0,0,0,0,0,0,0,0,0,0,0,0,0,-0.0088,-0.0134,-0.0068,-0.0045,-0.0042,0.0005,0.0007,0.0008,0.0035,0.0034,0.0034,0.0033,0.008,0.0082,0.0084,0.0109,0,0,0.0092,0.0093,0,0,0,0,0,0,0,0,-0.0091,-0.0085,-0.0049,-0.0046,-0.0043,0.001,0.0,0.004,0.0035,0.0007,0.0034,0.0033,0.0054,0.0059,0.0076,0.0111,0.0113,0.0092,0.0093,0.0094,0.0095,0,0,0,0,0,0,0,-0.0094,-0.0088,-0.0038,-0.0048,-0.0044,-0.0021,-0.0015,0.0008,0.0033,0.0009,0.0011,0.0018,0.0056,0.0073,0.0077,0.0114,0.0092,0.0094,0.0095,0.0096,0.0179,0.018,0,0,0,0,0,0,-0.0107,-0.0091,-0.004,-0.0036,-0.007,-0.002,-0.0013,-0.0006,0.0033,0.0039,0.0018,0.0019,0.0069,0.0074,0.0078,0.0117,0.0094,0.0096,0.0098,0.0178,0.0179,0.018,0,0,0,0,0,0,-0.0108,-0.0103,-0.0043,-0.0063,-0.0053,-0.0019,-0.001,-0.0004,0.0011,0.004,0.0045,0.0027,0.0069,0.0075,0.0105,0.0118,0.0097,0.01,0.0177,0.0179,0.018,0.0189,0,0,0,0,0,0,-0.0111,-0.0104,-0.0104,-0.0063,-0.0053,-0.0018,-0.001,-0.0002,0.0016,0.0017,0.0049,0.0053,0.0069,0.0102,0.0107,0.0121,0.0101,0.0176,0.0178,0.0179,0.0187,0.019,0.0192,0,0,0,0,0,-0.0113,-0.0115,-0.0105,-0.0099,-0.0054,-0.0018,-0.001,0.0014,0.0016,0.0025,0.0051,0.0052,0.0115,0.0104,0.0111,0.0126,0.0176,0.0177,0.0179,0.0186,0.0189,0.0192,0,0,0,0,0,0,-0.0147,-0.0111,-0.0099,-0.009,-0.0058,-0.0014,-0.0006,0.0013,0.0042,0.0041,0.0066,0.0072,0.0102,0.0114,0.0101,0.0154,0.0144,0.0148,0.0147,0.0151,0.0153,0.0147,0.0103,0,0,0,0,0,-0.0154,-0.0146,-0.0104,-0.0097,-0.0083,-0.0044,-0.0027,-0.0008,0.0024,0.0036,0.006,0.0087,0.0117,0.0132,0.0156,0.0187,0.0204,0.02,0.0203,0.0205,0.0205,0.0244,0.025,0.0186,0.0186,0.0186,0,0,-0.0167,-0.0146,-0.0142,-0.0104,-0.0078,-0.0054,-0.0035,-0.001,0.0013,0.0036,0.0069,0.0094,0.0126,0.0162,0.0176,0.0173,0.0233,0.0207,0.0208,0.0207,0.0247,0.0253,0.0258,0.0187,0.0187,0.0187,0,0,-0.0189,-0.0168,-0.0167,-0.0137,-0.0099,-0.0066,-0.0061,-0.0014,0.0009,0.0046,0.007,0.0107,0.0146,0.0181,0.0201,0.0232,0.0243,0.0235,0.0247,0.0285,0.0291,0.0296,0.033,0.0338,0.0239,0.0239,0.0239,0,-0.0209,-0.0197,-0.016,-0.0146,-0.0125,-0.0074,-0.0062,-0.0023,0.0028,0.0051,0.0052,0.0133,0.0157,0.0215,0.0227,0.0238,0.0257,0.0232,0.0288,0.0293,0.0298,0.0333,0.0341,0.0239,0.0239,0.0239,0.0239,0,-0.0224,-0.0211,-0.0207,-0.0169,-0.0138,-0.012,-0.006,-0.0026,0.0006,0.0045,0.0102,0.0149,0.0194,0.0213,0.0231,0.0284,0.0286,0.0284,0.0278,0.0305,0.034,0.0349,0.024,0.024,0.024,0.024,0,0,-0.0278,-0.023,-0.0229,-0.0218,-0.0151,-0.013,-0.0078,-0.0018,0.0013,0.007,0.0112,0.018,0.0206,0.0231,0.0265,0.0306,0.0363,0.0309,0.0311,0.034,0.0447,0.052,0.0536,0.0369,0.037,0.0371,0.0459,0,-0.0304,-0.0303,-0.0253,-0.0235,-0.0229,-0.0152,-0.0109,-0.0045,0.0016,0.0072,0.0141,0.0188,0.0214,0.0236,0.0285,0.0344,0.0386,0.0339,0.042,0.0423,0.0481,0.0549,0.0415,0.0489,0.0468,0.0469,0.047,0,-0.0335,-0.0332,-0.0332,-0.0279,-0.0266,-0.0236,-0.0157,-0.0111,-0.0005,0.0041,0.0116,0.0173,0.0258,0.0261,0.0383,0.0351,0.0397,0.044,0.0445,0.0515,0.0513,0.0458,0.0506,0.0485,0.0484,0.0483,0.0482,0,-0.0416,-0.0379,-0.0388,-0.0371,-0.0302,-0.0277,-0.0233,-0.0132,-0.0092,0.002,0.0062,0.0173,0.0227,0.0307,0.0416,0.0396,0.0544,0.0523,0.0633,0.0638,0.0542,0.0538,0.0598,0.0598,0.0598,0.0597,0.0597,0,-0.0469,-0.0472,-0.043,-0.0438,-0.0436,-0.0354,-0.0324,-0.0253,-0.0154,-0.0101,0.0027,0.0102,0.0239,0.035,0.0425,0.0579,0.0555,0.0657,0.0678,0.0545,0.0539,0.0543,0.0536,0.0601,0.06,0.0599,0.0599,0,-0.0556,-0.0529,-0.0539,-0.0491,-0.0479,-0.0482,-0.0406,-0.0379,-0.0263,-0.0186,-0.0153,0.0048,0.0221,0.0366,0.052,0.0603,0.0726,0.0774,0.062,0.0624,0.0785,0.0777,0.091,0.0914,0.0917,0.0919,0.0921,0,-0.0599,-0.0621,-0.0607,-0.0628,-0.061,-0.0596,-0.0587,-0.0467,-0.0419,-0.0212,-0.0179,0.0032,0.0205,0.0493,0.0632,0.0804,0.0814,0.0814,0.0768,0.0817,0.0823,0.081,0.0798,0.063,0.063,0.063,0.0629,0,-0.0685,-0.0683,-0.0696,-0.0755,-0.0761,-0.0752,-0.071,-0.068,-0.0517,-0.0407,-0.0198,-0.003,0.0273,0.0474,0.0721,0.0781,0.0784,0.082,0.0903,0.0596,0.0568,0.0569,0.0563,0.0626,0.0627,0.0627,0.0627,0.0627,-0.0747,-0.0789,-0.0823,-0.0875,-0.0894,-0.0891,-0.0871,-0.0814,-0.0718,-0.0555,-0.0312,-0.0088,0.0205,0.0502,0.0692,0.081,0.0826,0.0828,0.0822,0.0818,0.0794,0.0775,0.0867,0.0869,0.087,0.0871,0.0872,0,-0.0822,-0.0874,-0.0942,-0.0988,-0.104,-0.1004,-0.0943,-0.0927,-0.0844,-0.069,-0.0494,-0.0198,0.0099,0.0384,0.0573,0.0777,0.0686,0.0794,0.0636,0.0637,0.0638,0.06,0.0625,0.0625,0.0626,0.0626,0,0,-0.0863,-0.0956,-0.1,-0.1116,-0.114,-0.1168,-0.1124,-0.1089,-0.0995,-0.0871,-0.0709,-0.0426,0.003,0.0141,0.0386,0.0503,0.0492,0.0473,0.0635,0.0411,0.0411,0.0611,0.055,0,0,0,0,0]}],[{"header":{"parameterUnit":"m.s-1","parameterCategory":2,"la1":30.2991,"la2":30.254,"lo1":-89.0895,"lo2":-89.0444,"dx":0.0017,"dy":0.0017,"nx":28,"ny":28,"refTime":"2023-01-23T03:00:00:Z","depth":"4","parameterNumber":2,"parameterNumberName":"U-component_of_CURRENTS"},"data":[0,0,0,0,0,0,0,0,0,0,0,0,0,0,0,0,0,0,0,0,0,0,0,0,0,0,0,0,0,0,0,0,0,0,0,0,0,0,0,0,0,0,0,0,0,0,0,0,0,0,0,0,0,0,0,0,0,0,-0.0912,-0.0912,0,-0.09,-0.09,-0.09,-0.0916,-0.0917,-0.0918,-0.0919,-0.0888,-0.0886,-0.0885,0,0,0,0,0,0,0,0,0,0,0,0,0,-0.0901,-0.0901,-0.0912,-0.0912,-0.0912,-0.09,-0.09,-0.09,-0.0916,-0.0917,-0.0918,-0.0919,-0.0888,-0.0887,-0.0885,0,0,0,0,0,0,0,0,0,0,0,0,0,-0.0897,-0.0901,-0.0912,-0.0921,-0.0921,-0.09,-0.09,-0.0899,-0.0916,-0.0917,-0.0918,-0.0919,-0.0889,-0.0887,-0.0884,-0.0847,0,0,-0.0877,-0.0876,0,0,0,0,0,0,0,0,-0.0898,-0.0898,-0.0919,-0.092,-0.0921,-0.0913,-0.0885,-0.0882,-0.0916,-0.0916,-0.0919,-0.092,-0.0895,-0.0892,-0.0885,-0.0846,-0.0844,-0.0877,-0.0876,-0.0875,-0.0874,0,0,0,0,0,0,0,-0.0898,-0.0898,-0.0906,-0.0919,-0.092,-0.0908,-0.0909,-0.0884,-0.0897,-0.0916,-0.0918,-0.0919,-0.0895,-0.0887,-0.0884,-0.0844,-0.0877,-0.0875,-0.0874,-0.0873,-0.0817,-0.0817,0,0,0,0,0,0,-0.0905,-0.0898,-0.0906,-0.0905,-0.0914,-0.0908,-0.0909,-0.0912,-0.0898,-0.0898,-0.0918,-0.092,-0.089,-0.0887,-0.0883,-0.0906,-0.0875,-0.0873,-0.0871,-0.0817,-0.0817,-0.0817,0,0,0,0,0,0,-0.0904,-0.0905,-0.0906,-0.0903,-0.0903,-0.0908,-0.0911,-0.0912,-0.0925,-0.09,-0.0899,-0.0933,-0.0891,-0.0886,-0.088,-0.0902,-0.0872,-0.087,-0.0817,-0.0817,-0.0817,-0.0907,0,0,0,0,0,0,-0.0904,-0.0905,-0.0915,-0.0904,-0.0903,-0.0914,-0.091,-0.0911,-0.0923,-0.0926,-0.0912,-0.0909,-0.0892,-0.0884,-0.0878,-0.0898,-0.0868,-0.0817,-0.0817,-0.0817,-0.0904,-0.091,-0.0915,0,0,0,0,0,-0.0904,-0.0915,-0.0916,-0.0917,-0.0915,-0.0915,-0.0914,-0.0919,-0.0923,-0.0934,-0.0923,-0.0911,-0.0878,-0.0882,-0.0875,-0.0895,-0.0818,-0.0817,-0.0817,-0.0902,-0.0909,-0.0915,0,0,0,0,0,0,-0.0915,-0.0917,-0.0918,-0.093,-0.0931,-0.0919,-0.0929,-0.0928,-0.0927,-0.0934,-0.091,-0.0906,-0.0907,-0.088,-0.0885,-0.0875,-0.0845,-0.0843,-0.0912,-0.0918,-0.0923,-0.0946,-0.0866,0,0,0,0,0,-0.0921,-0.0932,-0.0929,-0.0939,-0.0943,-0.0938,-0.094,-0.0945,-0.0939,-0.0941,-0.0931,-0.0913,-0.0894,-0.0893,-0.087,-0.0865,-0.0861,-0.087,-0.0875,-0.088,-0.0891,-0.0893,-0.0901,-0.0816,-0.0816,-0.0816,0,0,-0.0928,-0.0931,-0.0937,-0.0943,-0.0944,-0.0959,-0.0943,-0.0957,-0.0974,-0.0935,-0.0956,-0.0931,-0.0895,-0.0895,-0.0892,-0.0881,-0.0906,-0.088,-0.0885,-0.0893,-0.0894,-0.0902,-0.091,-0.0816,-0.0816,-0.0816,0,0,-0.0943,-0.0951,-0.0965,-0.0974,-0.0985,-0.0983,-0.0993,-0.0994,-0.1003,-0.1009,-0.0986,-0.0977,-0.0952,-0.0937,-0.0922,-0.0937,-0.0931,-0.0928,-0.0982,-0.0984,-0.0992,-0.0998,-0.1033,-0.1042,-0.0936,-0.0936,-0.0936,0,-0.0951,-0.0971,-0.0969,-0.0989,-0.1006,-0.1,-0.1026,-0.1028,-0.1029,-0.1039,-0.1031,-0.1002,-0.0973,-0.0972,-0.098,-0.0954,-0.0965,-0.0968,-0.0995,-0.1001,-0.1007,-0.1039,-0.1048,-0.094,-0.094,-0.0939,-0.0939,0,-0.0973,-0.1001,-0.1013,-0.1039,-0.1055,-0.1077,-0.1085,-0.1103,-0.111,-0.111,-0.1118,-0.1078,-0.1066,-0.1051,-0.1023,-0.1043,-0.1044,-0.1003,-0.0989,-0.1021,-0.1053,-0.1061,-0.0946,-0.0945,-0.0944,-0.0943,0,0,-0.0958,-0.1018,-0.1024,-0.1056,-0.1089,-0.1103,-0.114,-0.1165,-0.1196,-0.119,-0.1222,-0.1184,-0.117,-0.115,-0.1114,-0.1114,-0.1165,-0.1086,-0.1084,-0.114,-0.1205,-0.1163,-0.1167,-0.1136,-0.1137,-0.1138,-0.1223,0,-0.0977,-0.1032,-0.1058,-0.1117,-0.1147,-0.1173,-0.121,-0.1235,-0.125,-0.1278,-0.1248,-0.1254,-0.1205,-0.1205,-0.12,-0.1163,-0.1184,-0.1147,-0.1147,-0.1148,-0.1122,-0.1173,-0.1141,-0.1229,-0.123,-0.1232,-0.1233,0,-0.0981,-0.1025,-0.1088,-0.117,-0.1187,-0.1225,-0.1291,-0.1323,-0.1357,-0.1369,-0.1376,-0.1354,-0.1353,-0.1301,-0.1292,-0.1275,-0.1257,-0.1232,-0.1234,-0.1167,-0.1119,-0.1178,-0.1246,-0.1245,-0.1244,-0.1243,-0.1242,0,-0.0958,-0.1043,-0.1099,-0.1125,-0.1211,-0.1254,-0.1301,-0.1351,-0.1388,-0.1428,-0.146,-0.1449,-0.1455,-0.1422,-0.1373,-0.1342,-0.1371,-0.1313,-0.127,-0.1268,-0.1242,-0.1233,-0.1326,-0.1326,-0.1325,-0.1325,-0.1325,0,-0.0953,-0.1,-0.11,-0.1128,-0.1205,-0.1266,-0.1342,-0.1383,-0.1452,-0.1498,-0.1505,-0.153,-0.1486,-0.1488,-0.1428,-0.1386,-0.1419,-0.1302,-0.1287,-0.128,-0.1274,-0.125,-0.124,-0.1328,-0.1328,-0.1327,-0.1327,0,-0.0905,-0.0973,-0.1043,-0.1153,-0.1193,-0.1244,-0.1365,-0.1413,-0.1489,-0.1552,-0.1571,-0.1612,-0.1611,-0.1577,-0.1537,-0.1465,-0.1416,-0.1396,-0.144,-0.1422,-0.1306,-0.1299,-0.1359,-0.1358,-0.1357,-0.1357,-0.1356,0,-0.0885,-0.0915,-0.1041,-0.1085,-0.1139,-0.1232,-0.1294,-0.1405,-0.1454,-0.1585,-0.1604,-0.166,-0.1664,-0.1593,-0.1554,-0.1485,-0.1442,-0.1435,-0.1325,-0.133,-0.1309,-0.1304,-0.1298,-0.1355,-0.1355,-0.1355,-0.1355,0,-0.0833,-0.0882,-0.0934,-0.1026,-0.1104,-0.119,-0.1289,-0.133,-0.1456,-0.1553,-0.1599,-0.1597,-0.1616,-0.1559,-0.1536,-0.1465,-0.1439,-0.1427,-0.1426,-0.1322,-0.1326,-0.1305,-0.13,-0.1352,-0.1353,-0.1353,-0.1353,0,-0.0782,-0.08,-0.0868,-0.0941,-0.1038,-0.1105,-0.1183,-0.1264,-0.1338,-0.1494,-0.1511,-0.156,-0.1621,-0.1554,-0.1519,-0.1466,-0.1413,-0.134,-0.1343,-0.1345,-0.1291,-0.1291,-0.1314,0,0,0,0,0,-0.0719,-0.072,-0.0779,-0.0844,-0.094,-0.0987,-0.1152,-0.1234,-0.1381,-0.1388,-0.1449,-0.1458,-0.144,-0.1459,-0.1389,-0.1475,-0.1396,-0.1388,-0.1309,-0.134,-0.1342,-0.1273,0,0,0,0,0,0,-0.0668,-0.0703,-0.0732,-0.0746,-0.0761,-0.0851,-0.095,-0.1062,-0.1083,-0.1236,-0.1227,-0.1344,-0.1328,-0.142,-0.1333,-0.134,-0.1263,-0.1428,-0.1425,-0.1338,-0.134,-0.1343,-0.1272,0,0,0,0,0]},{"header":{"parameterUnit":"m.s-1","parameterCategory":2,"la1":30.2991,"la2":30.254,"lo1":-89.0895,"lo2":-89.0444,"dx":0.0017,"dy":0.0017,"nx":28,"ny":28,"refTime":"2023-01-23T03:00:00:Z","depth":"4","parameterNumber":3,"parameterNumberName":"V-component_of_CURRENTS"},"data":[0,0,0,0,0,0,0,0,0,0,0,0,0,0,0,0,0,0,0,0,0,0,0,0,0,0,0,0,0,0,0,0,0,0,0,0,0,0,0,0,0,0,0,0,0,0,0,0,0,0,0,0,0,0,0,0,0,0,-0.0275,-0.0274,0,-0.0246,-0.0246,-0.0245,-0.0241,-0.0241,-0.0242,-0.0242,-0.0215,-0.0214,-0.0213,0,0,0,0,0,0,0,0,0,0,0,0,0,-0.0288,-0.0288,-0.0275,-0.0274,-0.0274,-0.0246,-0.0246,-0.0245,-0.0241,-0.0241,-0.0242,-0.0242,-0.0215,-0.0214,-0.0213,0,0,0,0,0,0,0,0,0,0,0,0,0,-0.0272,-0.0288,-0.0275,-0.027,-0.0269,-0.0246,-0.0246,-0.0245,-0.0241,-0.0241,-0.0242,-0.0242,-0.0216,-0.0214,-0.0213,-0.0191,0,0,-0.0208,-0.0207,0,0,0,0,0,0,0,0,-0.0273,-0.0272,-0.0271,-0.027,-0.0269,-0.0249,-0.0241,-0.0228,-0.0241,-0.025,-0.0242,-0.0243,-0.0227,-0.0224,-0.0216,-0.019,-0.0189,-0.0208,-0.0207,-0.0206,-0.0205,0,0,0,0,0,0,0,-0.0274,-0.0273,-0.0262,-0.027,-0.027,-0.0256,-0.0255,-0.0238,-0.0235,-0.0249,-0.0249,-0.0248,-0.0226,-0.0217,-0.0215,-0.0188,-0.0208,-0.0206,-0.0205,-0.0204,-0.014,-0.0139,0,0,0,0,0,0,-0.0282,-0.0274,-0.0263,-0.0261,-0.0274,-0.0256,-0.0254,-0.0254,-0.0235,-0.0233,-0.0248,-0.0248,-0.022,-0.0217,-0.0214,-0.0176,-0.0206,-0.0204,-0.0203,-0.014,-0.0139,-0.0139,0,0,0,0,0,0,-0.0282,-0.0281,-0.0264,-0.0268,-0.0265,-0.0255,-0.0255,-0.0253,-0.0247,-0.0234,-0.0232,-0.0245,-0.022,-0.0217,-0.0196,-0.0176,-0.0204,-0.0202,-0.0141,-0.014,-0.0139,-0.0108,0,0,0,0,0,0,-0.0283,-0.0281,-0.0285,-0.0268,-0.0265,-0.0251,-0.0254,-0.0252,-0.0246,-0.0247,-0.023,-0.0228,-0.022,-0.0198,-0.0194,-0.0174,-0.0201,-0.0142,-0.0141,-0.0139,-0.011,-0.0106,-0.0103,0,0,0,0,0,-0.0283,-0.0288,-0.0285,-0.0284,-0.027,-0.0251,-0.0248,-0.0242,-0.0246,-0.024,-0.0227,-0.0229,-0.0187,-0.0196,-0.0192,-0.0171,-0.0143,-0.0141,-0.014,-0.0112,-0.0107,-0.0103,0,0,0,0,0,0,-0.0297,-0.0287,-0.0284,-0.0286,-0.027,-0.0251,-0.0249,-0.0242,-0.0227,-0.0229,-0.0218,-0.0214,-0.0189,-0.0185,-0.0196,-0.0149,-0.0165,-0.0163,-0.0146,-0.0141,-0.0138,-0.014,-0.02,0,0,0,0,0,-0.0301,-0.0302,-0.0285,-0.0286,-0.0279,-0.0263,-0.0257,-0.0249,-0.0234,-0.0228,-0.0214,-0.0198,-0.0176,-0.0165,-0.0149,-0.0122,-0.0113,-0.0106,-0.0102,-0.0099,-0.0098,-0.0065,-0.0058,-0.0133,-0.0133,-0.0133,0,0,-0.0309,-0.0303,-0.0304,-0.0289,-0.0278,-0.0264,-0.0261,-0.0249,-0.0233,-0.0227,-0.0203,-0.0186,-0.0167,-0.0135,-0.0124,-0.0131,-0.0072,-0.0097,-0.0094,-0.0095,-0.0062,-0.0055,-0.0048,-0.0132,-0.0132,-0.0132,0,0,-0.0322,-0.0316,-0.0319,-0.0304,-0.0287,-0.0269,-0.0266,-0.0242,-0.0228,-0.0201,-0.0189,-0.0158,-0.0133,-0.0105,-0.0091,-0.0057,-0.0055,-0.0056,-0.0034,-0.0002,0.0005,0.001,0.0034,0.0042,-0.0052,-0.0052,-0.0052,0,-0.0333,-0.0333,-0.0316,-0.0309,-0.0299,-0.0271,-0.0264,-0.0238,-0.0209,-0.0191,-0.0193,-0.0133,-0.0115,-0.0065,-0.0051,-0.0046,-0.0036,-0.0052,0.0003,0.0009,0.0015,0.0038,0.0046,-0.005,-0.0051,-0.0051,-0.0051,0,-0.0343,-0.034,-0.0339,-0.032,-0.03,-0.0291,-0.0252,-0.0226,-0.0206,-0.0178,-0.013,-0.0096,-0.0062,-0.0044,-0.0035,0.0017,0.0009,0.0003,-0.0008,0.0024,0.0046,0.0054,-0.0048,-0.0049,-0.0049,-0.0049,0,0,-0.0379,-0.0354,-0.0354,-0.0349,-0.0308,-0.0296,-0.0254,-0.0211,-0.0187,-0.0141,-0.0106,-0.0047,-0.0028,-0.001,0.0013,0.005,0.0106,0.0043,0.0044,0.0067,0.0171,0.0159,0.0166,0.0106,0.0108,0.0109,0.0172,0,-0.0396,-0.04,-0.0368,-0.0356,-0.0355,-0.0304,-0.0271,-0.0223,-0.0177,-0.0131,-0.0073,-0.0035,-0.0015,0.0003,0.0048,0.0089,0.0127,0.0089,0.0136,0.0137,0.0123,0.0175,0.0114,0.0178,0.018,0.0181,0.0182,0,-0.0416,-0.0418,-0.0422,-0.0388,-0.038,-0.0359,-0.0302,-0.0266,-0.0183,-0.0147,-0.0083,-0.004,0.0036,0.0036,0.0137,0.0109,0.0141,0.0173,0.0176,0.0158,0.014,0.0139,0.0196,0.0195,0.0194,0.0193,0.0192,0,-0.0469,-0.0449,-0.0459,-0.0449,-0.0405,-0.0387,-0.0356,-0.028,-0.0251,-0.0159,-0.0127,-0.0031,0.0012,0.0079,0.0158,0.0146,0.0257,0.0245,0.0266,0.0265,0.0241,0.0234,0.0308,0.0308,0.0307,0.0307,0.0307,0,-0.0502,-0.0507,-0.049,-0.0497,-0.0501,-0.0443,-0.0423,-0.0369,-0.0295,-0.026,-0.0151,-0.0099,0.0024,0.0106,0.0166,0.0249,0.0265,0.0283,0.0288,0.0253,0.0246,0.0247,0.0239,0.031,0.0309,0.0309,0.0308,0,-0.0553,-0.0543,-0.0557,-0.0534,-0.0531,-0.0534,-0.0488,-0.0471,-0.0383,-0.033,-0.0303,-0.0147,-0.003,0.0087,0.0207,0.0253,0.0332,0.0349,0.0311,0.031,0.0314,0.0307,0.0385,0.0385,0.0385,0.0385,0.0385,0,-0.0576,-0.0596,-0.0609,-0.0631,-0.0623,-0.062,-0.0622,-0.0539,-0.0509,-0.0362,-0.0342,-0.0195,-0.0093,0.0078,0.0203,0.0334,0.0339,0.0382,0.0351,0.0329,0.0326,0.0318,0.0311,0.0386,0.0386,0.0386,0.0386,0,-0.0624,-0.0636,-0.0651,-0.0714,-0.0732,-0.0741,-0.0724,-0.0705,-0.0594,-0.0517,-0.0377,-0.0239,-0.0097,0.0062,0.0177,0.0264,0.0362,0.0384,0.0383,0.0355,0.0331,0.0326,0.0319,0.0387,0.0387,0.0386,0.0386,0,-0.066,-0.0692,-0.0734,-0.0776,-0.0822,-0.0844,-0.0818,-0.0759,-0.0707,-0.0526,-0.0485,-0.0287,-0.0152,0.0026,0.0128,0.0227,0.0238,0.0251,0.0257,0.0258,0.0204,0.0154,0.0173,0,0,0,0,0,-0.0689,-0.0733,-0.0792,-0.0839,-0.0891,-0.0911,-0.0881,-0.0834,-0.0723,-0.0649,-0.0558,-0.042,-0.0197,-0.0074,0.0015,0.0105,0.0236,0.0212,0.0247,0.0391,0.039,0.0348,0,0,0,0,0,0,-0.0711,-0.0774,-0.0804,-0.089,-0.0934,-0.098,-0.0963,-0.0885,-0.0817,-0.0685,-0.0569,-0.0432,-0.0225,-0.0274,-0.0,0.0043,0.0072,0.034,0.0342,0.0391,0.039,0.039,0.0346,0,0,0,0,0]}]]